Regional Weather Roundup
Issued by NWS

Home | Current Version | Previous Version | Graphics & Text | Print | Product List | Glossary On
Versions: 1 2 3 4 5 6 7 8 9 10 11 12 13 14 15 16 17 18 19 20 21 22 23 24 25 26 27 28 29 30 31 32 33 34 35 36 37 38 39 40 41 42 43 44 45 46 47 48 49 50
000
ASUS43 KBIS 041710
RWRND

NORTH DAKOTA REGIONAL WEATHER ROUNDUP
NATIONAL WEATHER SERVICE BISMARCK ND
1200 PM CDT MON MAY 04 2015

NOTE: "FAIR" INDICATES FEW OR NO CLOUDS BELOW 12,000 FEET WITH NO
SIGNIFICANT WEATHER AND/OR OBSTRUCTIONS TO VISIBILITY.


NDZ001>003-009>011-017-041800-
NORTHWEST NORTH DAKOTA

CITY           SKY/WX    TMP DP  RH WIND       PRES   REMARKS
WILLISTON      SUNNY     66  26  22 S13G21    30.14F
MINOT          MOSUNNY   64  22  20 SE9       30.19F
MINOT AFB      SUNNY     66  24  20 SW14      30.18F
$$

NDZ018>021-031>035-040>046-041800-
SOUTHWEST NORTH DAKOTA

CITY           SKY/WX    TMP DP  RH WIND       PRES   REMARKS
BISMARCK       MOSUNNY   64  26  23 S13G18    30.23F
DICKINSON      SUNNY     62  31  31 S22G29    30.16F
GARRISON         N/A     63  27  25 S13       30.20F
HETTINGER ARPT PTSUNNY   55  35  47 S17G25    30.22S
$$

NDZ004>008-012>016-024-026-027-054-041800-
NORTHEAST NORTH DAKOTA

CITY           SKY/WX    TMP DP  RH WIND       PRES   REMARKS
GRAND FORKS    MOSUNNY   63  30  28 S6        30.23R
GRND FRKS AFB  SUNNY     63  30  28 VRB6      30.23R
DEVILS LAKE    SUNNY     61  30  31 SW10      30.22S
$$

NDZ022-023-025-028>030-036>039-047>053-041800-
SOUTHEAST NORTH DAKOTA

CITY           SKY/WX    TMP DP  RH WIND       PRES   REMARKS
FARGO          FAIR      63  28  26 VRB3      30.23R
JAMESTOWN      MOSUNNY   61  26  26 S9        30.23S
$$



USA.gov is the U.S. government's official web portal to all federal, state and local government web resources and services.